Current Weather Conditions: station 62161

sailwx.info

Wind from 220

Wave height 4.3 meters (14 feet)

Air temperature 7.3° C
Visibility: greater than 10.8 NM
Dewpoint 1.3° C

Last reported at 2019-Dec-11 16:00 UTC.
Time now 2019-Dec-11 17:53 UTC

Location: N 58°24' E 001°12'.
View on Google Maps.

See reports from other nearby stations

  
Tides and Currents Weather Stations Pressure Air Temp Water Temp Dewpoint Dewpoint Depression Visibility Wind Speed Wind Dir Waves Ship Positions
date/time (UTC)wind fromknots sea level pressurealtimeterstation pressurevisibilityair tempwater tempwave heightnotes
2019-Dec-11 16:00 220 10.8 7.3 4.3
2019-Dec-11 15:00 220 10.8 7.4 4.6
2019-Dec-11 14:00 220 5.4 7.5 4.2
2019-Dec-11 13:00 220 5.4 7.7 4.3
2019-Dec-11 12:00 220 5.4 7.6 4.7
2019-Dec-11 11:00 220 5.4 7.2 4.1
2019-Dec-11 10:00 230 5.4 7.8 4.3
2019-Dec-11 09:00 220 5.4 7.7 4.4
2019-Dec-11 08:00 240 10.8 7.7 4.5
2019-Dec-11 07:00 240 10.8 7.8 4.7
2019-Dec-11 06:00 240 10.8 7.8 4.6
2019-Dec-11 05:00 250 10.8 7.5 4.4
2019-Dec-11 04:00 250 10.8 7.0 4.9
2019-Dec-11 03:00 240 10.8 7.7 4.4
2019-Dec-11 02:00 250 10.8 7.7 4.3
2019-Dec-11 01:00 240 10.8 8.0 4.1
2019-Dec-11 00:00 250 10.8 7.7 4.6
2019-Dec-10 23:00 250 10.8 7.8 5.2
2019-Dec-10 22:00 250 10.8 8.0 4.8
2019-Dec-10 21:00 250 10.8 7.3 5.8
2019-Dec-10 20:00 260 1.1 7.5 5.0
2019-Dec-10 19:00 270 2.2 8.1 5.7
2019-Dec-10 18:00 1.1 9.5 6.4
2019-Dec-10 17:00 200 2.2 9.5 6.3
2019-Dec-10 16:00 190 1.1 9.1 6.3
2019-Dec-10 15:00 190 1.1 8.6 6.6
2019-Dec-10 14:00 0.5 8.0 6.5
2019-Dec-10 13:00 0.5 7.8 5.9
2019-Dec-10 12:00 180 0.5 7.6 5.8
2019-Dec-10 11:00 180 1.1 7.6 5.2
2019-Dec-10 10:00 180 2.2 7.8 4.7
2019-Dec-10 09:00 180 5.4 7.7 3.7
2019-Dec-10 08:00 180 2.2 7.5 3.3
2019-Dec-10 07:00 180 5.4 7.5
2019-Dec-10 06:00 190 5.4 7.2 2.9
2019-Dec-10 05:00 190 5.4 7.0 2.9
2019-Dec-10 04:00 190 10.8 6.6 2.7
2019-Dec-10 03:00 190 10.8 6.4 3.3
2019-Dec-10 02:00 210 10.8 6.2 3.6
2019-Dec-10 01:00 220 10.8 6.0 3.8
2019-Dec-10 00:00 220 10.8 5.4 4.1
2019-Dec-09 23:00 270 10.8 5.0 4.3
2019-Dec-09 22:00 300 10.8 5.1 4.3
2019-Dec-09 21:00 310 10.8 5.2 4.8
2019-Dec-09 20:00 320 10.8 5.1 4.1
2019-Dec-09 19:00 320 10.8 5.2 4.9
2019-Dec-09 18:00 320 10.8 5.1 4.7
2019-Dec-09 17:00 330 10.8 4.5 5.2